Regional Weather Roundup
Issued by NWS Upton, NY

Current Version | Previous Version | Graphics & Text | Print | Product List | Glossary Off
Versions: 1 2 3 4 5 6 7 8 9 10 11 12 13 14 15 16 17 18 19 20 21 22 23 24 25 26 27 28 29 30 31 32 33 34 35 36 37 38 39 40 41 42 43 44 45 46 47 48 49 50

805
ASUS41 KOKX 151609
RWROKX

REGIONAL WEATHER ROUNDUP
NATIONAL WEATHER SERVICE NEW YORK NY
1200 PM EDT TUE AUG 15 2017

NOTE: "FAIR" INDICATES FEW OR NO CLOUDS BELOW 12,000 FEET WITH NO
SIGNIFICANT WEATHER AND/OR OBSTRUCTIONS TO VISIBILITY.

NYZ071-072-176-178-NJZ106-104-151700-
NEW YORK CITY METRO AREA

CITY           SKY/WX    TMP DP  RH WIND       PRES   REMARKS
Central Park   CLOUDY    73  70  90 CALM      29.95F FOG
Bronx Bot Gard NOT AVBL
LaGuardia APRT CLOUDY    75  70  84 VRB6      29.92S
Kennedy INTL   CLOUDY    74  71  91 SE9       29.93F
Breezy Point     N/A     72 N/A N/A E7          N/A
Newark/Liberty CLOUDY    74  68  81 SE7       29.92F
Teterboro      CLOUDY    75  68  78 S3        29.91F
$$

NYZ177-179-078>081-151700-
LONG ISLAND NEW YORK

CITY           SKY/WX    TMP DP  RH WIND       PRES   REMARKS
Jones Beach      N/A     72 N/A N/A E7          N/A
Matinecock PT    N/A     72 N/A N/A NE5         N/A
Farmingdale    PTSUNNY   74  68  81 SE9       29.93F
MacArthur/ISP  CLOUDY    75  68  78 SE10      29.93F
Shirley        PTSUNNY   76  69  79 SE9       29.94F
Mt Sinai Harb    N/A    N/A N/A N/A E1          N/A
Westhampton    PTSUNNY   73  65  75 SE7       29.96S
East Hampton   CLOUDY    72  64  75 SE6       29.94S
Montauk          N/A     74  65  73 CALM      29.96S
$$

NYZ052-065-067-151700-
HUDSON VALLEY

CITY           SKY/WX    TMP DP  RH WIND       PRES   REMARKS
White Plains   CLOUDY    72  66  81 SE6       29.93F
Larchmont Harb   N/A     72 N/A N/A NE2         N/A
Croton On Huds   N/A     73 N/A N/A S2          N/A
Newburgh       CLOUDY    72  68  88 CALM      29.94F
Montgomery     CLOUDY    72  66  81 S3        29.93S
Poughkeepsie   CLOUDY    74  66  76 VRB3      29.91F
Albany         CLOUDY    75  65  70 S7        29.90F
$$

NJZ001-105-106-008-010-013-015-019>022-104-151700-
NEW JERSEY

CITY           SKY/WX    TMP DP  RH WIND       PRES   REMARKS
Newark/Liberty CLOUDY    74  68  81 SE7       29.92F
Teterboro      CLOUDY    75  68  78 S3        29.91F
Caldwell       PTSUNNY   74  69  85 VRB5      29.93F
Somerville     LGT RAIN  73  70  90 CALM      29.91F FOG
Linden         CLOUDY    74  67  81 CALM      29.93S
Perth Amboy      N/A     72 N/A N/A E5          N/A
Sussex         CLOUDY    73  68  84 CALM      29.92F
Andover          N/A     73  66  78 S5        29.93F
Trenton        LGT RAIN  73  70  90 SE6       29.92S
Millville      LGT RAIN  77  77 100 E3        29.91F FOG
Atlantic City  LGT RAIN  76  74  93 MISG      29.92S
Wrightstown    LGT RAIN  74  72  94 SE3       29.90S
Toms River     RAIN      74  73  97 SE6       29.93S FOG
Belmar         CLOUDY    73  70  90 SE6       29.94S
$$

PAZ047>061-062-071-151700-
EASTERN PENNSYLVANIA

CITY           SKY/WX    TMP DP  RH WIND       PRES   REMARKS
Philadelphia   CLOUDY    76  72  87 E5        29.92R
Allentown      LGT RAIN  70  67  90 CALM      29.93F FOG
Scranton       CLOUDY    71  66  84 SW7       29.94F
$$

CTZ002-004>006-009-010-012-RIZ004-006-007-MAZ004-011-015-151700-
SOUTHERN NEW ENGLAND
 IN CT

CITY           SKY/WX    TMP DP  RH WIND       PRES   REMARKS
Bradley INTL   CLOUDY    75  66  73 S8        29.92F
Hartford       PTSUNNY   78  66  66 VRB7      29.91F
Danbury        CLOUDY    76  66  71 S7        29.94F
Wtrbury/Oxford NOT AVBL
Norwalk Harbor   N/A     72 N/A N/A E3          N/A
Bridgeport     CLOUDY    74  65  73 SE6       29.93S
Meriden        CLOUDY    75  66  73 SW5       29.93F
New Haven      CLOUDY    76  65  68 SE6       29.93F
Chester        NOT AVBL
Groton         CLOUDY    73  66  78 S7        29.93F
Wilimantic     PTSUNNY   76  67  73 MISG      29.93F

 IN RI

CITY           SKY/WX    TMP DP  RH WIND       PRES   REMARKS
Providence     CLOUDY    79  69  71 SE6       29.93F
Block Island   CLOUDY    73  64  73 S7        29.95S
Westerly       CLOUDY    75  65  70 S7        29.95S
 IN MA

CITY           SKY/WX    TMP DP  RH WIND       PRES   REMARKS
Boston         CLOUDY    78  66  66 S10       29.91F
Worcester      CLOUDY    71  62  73 SW13      29.95F
Westfield      CLOUDY    73  69  87 S3        29.92S
Provincetown   MOSUNNY   78  68  71 S9        29.94F
Nantucket      CLOUDY    70  68  93 S8        29.96S
$$

ANZ330-335-338-340-345-350-353-355-151700-
COASTAL MARINE OBSERVATIONS


STATION/POSITION TIME  SKY/WX   TEMP    WIND        PRES    VSBY  WAVE
                                AIR SEA DIR/SP/G                  HT/PER
                 (UTC)          (F)     (DEG/KT/KT) (MB)    (MI)  (FT/S)
NY HARB ENTRANCE 1450            74 75  120/  8/ 10 1013.0          3/10
GREAT SOUTH BAY  1530            73 77  120/  8/ 10   N/A
23 SSW MONTAUK P 1450            72 70              1014.2          3/ 6
15 E BARNEGAT LI 1530               76                N/A           4/10
HUDSON CANYON    1450            74 75  110/ 10/ 12 1013.0          4/ 9
KINGS POINT      1536            72 74   40/  3/  3 1013.3
EXECUTION ROCKS  NOT AVBL
WESTERN LI SOUND NOT AVBL
CENTRAL LI SOUND NOT AVBL
EASTERN LI SOUND NOT AVBL
ROBBINS REEF     1536                   160/  7/  8 1013.8
$$


>>>>>>>>>>>>>>>>>>>>>>>>>>>> KEY <<<<<<<<<<<<<<<<<<<<<<<<<<<
>                                                          <
>     SKY/WX - Sky Condition/Present Weather               <
>     TMP    - Temperature in Fahrenheit                   <
>     DP     - Dew Point in Fahrenheit                     <
>     RH     - Relative Humidity in Percent                <
>     WIND   - Direction (from) and Speed in MPH           <
>     PRES   - Mean Sea Level Pressure (inches of Hg)      <
>     WCI    - Wind Chill Index                            <
>     VSB    - VISIBILITY IN MILES                         <
>     HX     - HEAT INDEX                                  <
>     TC     - TEMPERATURE IN CELSIUS                      <
>     VRB    - VARIABLE WIND DIRECTION                     <
>                                                          <
>>>>>>>>>>>>>>>>>>>>>>>>>>>> KEY <<<<<<<<<<<<<<<<<<<<<<<<<<<




USA.gov is the U.S. government's official web portal to all federal, state and local government web resources and services.